Tracking 19976 objects as of 15-Nov-2019
Live streaming from Space Station
objects crossing your sky now

SL-12 R/B(AUX MOTOR)

Track SL-12 R/B(AUX MOTOR) now!
10-day predictions


NORAD ID: 19537
Int'l Code: 1988-085G
Perigee: 311.5 km
Apogee: 18,646.6 km
Inclination: 64.6 °
Period: 331.0 minutes
Semi major axis: 15850 km
RCS: 0.8248 m2 (medium)
Launch date: September 16, 1988
Source: Commonwealth of Independent States (former USSR) (CIS)
Launch site: TYURATAM MISSILE AND SPACE COMPLEX (TTMTR)

Note: This is a ROCKET BODY
aabbcc
Your satellite tracking list
Your tracking list is empty




NASA's NSSDC Master Catalog

Two Line Element Set (TLE):
1 19537U 88085G   19318.49452225  .00001573  00000-0  35242-3 0  9994
2 19537  64.6241 155.8277 5783914 188.1709 155.4193  4.35066317489785
Source of the keplerian elements: AFSPC